This is the latest recevied weather packets stored in our database for station/object SP4LIN-15. If no packets are shown the sender has not sent any weather packets the latest 10 day(s).
| Time | Temp. | Humidity | Pressure | Rain* | Wind** | Luminosity | Snow |
|---|---|---|---|---|---|---|---|
| 1777759178 | 11.67° C | 55% | 1009.5 hPa | 0 mm | - | - | - |
| 1777758278 | 12.22° C | 53% | 1009.6 hPa | 0 mm | - | - | - |
| 1777757378 | 12.22° C | 53% | 1009.7 hPa | 0 mm | - | - | - |
| 1777756478 | 12.78° C | 53% | 1009.6 hPa | 0 mm | - | - | - |
| 1777755578 | 12.78° C | 51% | 1009.5 hPa | 0 mm | - | - | - |
| 1777754678 | 12.78° C | 51% | 1009.7 hPa | 0 mm | - | - | - |
| 1777753778 | 12.78° C | 51% | 1009.6 hPa | 0 mm | - | - | - |
| 1777752878 | 12.78° C | 50% | 1009.7 hPa | 0 mm | - | - | - |
| 1777751978 | 13.89° C | 47% | 1009.6 hPa | 0 mm | - | - | - |
| 1777751078 | 14.44° C | 46% | 1009.8 hPa | 0 mm | - | - | - |
| 1777750178 | 13.89° C | 46% | 1009.8 hPa | 0 mm | - | - | - |
| 1777749278 | 14.44° C | 44% | 1009.9 hPa | 0 mm | - | - | - |
| 1777748378 | 15° C | 44% | 1009.8 hPa | 0 mm | - | - | - |
| 1777747478 | 16.11° C | 39% | 1009.7 hPa | 0 mm | - | - | - |
| 1777746578 | 17.22° C | 37% | 1009.7 hPa | 0 mm | - | - | - |
| 1777745678 | 18.89° C | 35% | 1009.8 hPa | 0 mm | - | - | - |
| 1777744778 | 20.56° C | 33% | 1009.5 hPa | 0 mm | - | - | - |
| 1777743878 | 22.78° C | 30% | 1009.6 hPa | 0 mm | - | - | - |
| 1777742978 | 25° C | 29% | 1009.7 hPa | 0 mm | - | - | - |
| 1777742079 | 25.56° C | 27% | 1009.8 hPa | 0 mm | - | - | - |
| 1777741179 | 26.67° C | 26% | 1010.1 hPa | 0 mm | - | - | - |
| 1777740279 | 27.22° C | 24% | 1010.2 hPa | 0 mm | - | - | - |
| 1777739379 | 27.78° C | 25% | 1010.3 hPa | 0 mm | - | - | - |
| 1777738479 | 28.89° C | 24% | 1010.5 hPa | 0 mm | - | - | - |
| 1777737579 | 28.89° C | 23% | 1010.8 hPa | 0 mm | - | - | - |
* Rain latest hour (hover to see other rain measurements)
** Current wind speed in m/s (hover to see current wind gust speed)